Back to catalog

STARLINK-34758

AliveCommunicationsSSO
NORAD 64945·PAYLOAD·🇺🇸 United States

Launched Jul 26, 2025 from Vandenberg Space Force Base

Loading…

Next Passes (next 24 hours)

TLE

FreshSource: CelesTrak SupGP

Epoch: Sep 14, 2026, 20:54 UTC

1 64945C 25158P   26257.87131944  .00014849  00000+0  46104-3 0  2578
2 64945  97.2839 116.2929 0001650  98.5758 340.4596 15.33424018    15

Track STARLINK-34758 in real time with AllMySat

Download on the App Store